User: anonymous   Login
Location: Caltech
(34.1382°N, 118.1253°W)
Time: 05:26:33
(UTC-07:00)
Language:

SO-50 - Orbit

View from above orbital plane
View from above orbital plane
View from above satellite
View from above satellite

Ground track
Ground track

The orbit data is extracted from the following two-line orbital elements,

1 27607U 02058C   16176.89351299  .00000035  00000-0  25833-4 0  9997
2 27607  64.5544 137.2979 0067397 215.4108 144.2511 14.75169575726400
Epoch (UTC): 24 June 2016 21:26:39
Eccentricity: 0.0067397
inclination: 64.5544°
perigee height: 597 km
apogee height: 692 km
right ascension of ascending node: 137.2979°
argument of perigee: 215.4108°
revolutions per day: 14.75169575
mean anomaly at epoch: 144.2511°
orbit number at epoch: 72640

The dashed part of the orbit path shows where the satellite is in the earth's shadow,  

DLR